This is the latest recevied weather packets stored in our database for station/object KI5RAB. If no packets are shown the sender has not sent any weather packets the latest 10 day(s).
| Time | Temp. | Humidity | Pressure | Rain* | Wind** | Luminosity | Snow |
|---|---|---|---|---|---|---|---|
| 1788379032 | 37.78° C | 42% | 1016.6 hPa | 0 mm | - | 646 W/m² | - |
| 1788378731 | 37.22° C | 43% | 1016.6 hPa | 0 mm | - | 649 W/m² | - |
| 1788378425 | 37.22° C | 45% | 1016.7 hPa | 0 mm | - | 664 W/m² | - |
| 1788378120 | 37.22° C | 41% | 1016.6 hPa | 0 mm | - | 669 W/m² | - |
| 1788377815 | 36.67° C | 42% | 1016.9 hPa | 0 mm | - | 676 W/m² | - |
| 1788377510 | 36.67° C | 44% | 1017 hPa | 0 mm | - | 686 W/m² | - |
| 1788377208 | 37.22° C | 43% | 1017.1 hPa | 0 mm | - | 681 W/m² | - |
| 1788376903 | 37.78° C | 44% | 1017.1 hPa | 0 mm | - | 684 W/m² | - |
| 1788376597 | 36.67° C | 45% | 1017.1 hPa | 0 mm | - | 682 W/m² | - |
| 1788376291 | 37.22° C | 46% | 1017.3 hPa | 0 mm | - | 698 W/m² | - |
| 1788375987 | 36.67° C | 44% | 1017.3 hPa | 0 mm | - | 703 W/m² | - |
| 1788375682 | 36.67° C | 42% | 1017.5 hPa | 0 mm | - | 709 W/m² | - |
| 1788375378 | 36.67° C | 44% | 1017.4 hPa | 0 mm | - | 714 W/m² | - |
| 1788375074 | 36.67° C | 43% | 1017.3 hPa | 0 mm | - | 713 W/m² | - |
| 1788374768 | 36.67° C | 45% | 1017.7 hPa | 0 mm | - | 714 W/m² | - |
| 1788374458 | 36.11° C | 47% | 1017.7 hPa | 0 mm | - | 709 W/m² | - |
| 1788374154 | 36.11° C | 49% | 1017.9 hPa | 0 mm | - | 719 W/m² | - |
| 1788373851 | 35.56° C | 49% | 1017.9 hPa | 0 mm | - | 717 W/m² | - |
| 1788373546 | 35.56° C | 50% | 1018.2 hPa | 0 mm | - | 713 W/m² | - |
| 1788373243 | 36.11° C | 51% | 1018 hPa | 0 mm | - | 711 W/m² | - |
| 1788372938 | 36.11° C | 49% | 1018.2 hPa | 0 mm | - | 712 W/m² | - |
| 1788372632 | 35.56° C | 51% | 1018.3 hPa | 0 mm | - | 715 W/m² | - |
| 1788372327 | 35° C | 53% | 1018.4 hPa | 0 mm | - | 716 W/m² | - |
| 1788372023 | 35.56° C | 48% | 1018.4 hPa | 0 mm | - | 712 W/m² | - |
| 1788371722 | 35.56° C | 53% | 1018.5 hPa | 0 mm | - | 701 W/m² | - |
* Rain latest hour (hover to see other rain measurements)
** Current wind speed in m/s (hover to see current wind gust speed)